Simultaneous Nadir Overpasses (SNOs) Predictions

Prediction of SNOs between GOES-15 and NPP Satellite Orbit:

Table of predicted SNOs for the next 14.0 days since TLE Epoch: 6/8/2024
Index Date Time (GOES-15) GOES-15 Lat,Lon NPP Lat,Lon Distance(km) Time Diff (sec)
1 06/09/2024 21:17:51 -0.07, 61.43 -0.06, 61.44 1.19 80
2 06/12/2024 09:20:58 0.08, 61.36 -0.04, 60.67 78.24 80
3 06/13/2024 09:04:51 0.07, 61.35 0.92, 65.22 440.69 80
4 06/14/2024 21:23:56 -0.10, 61.38 0.23, 59.96 161.96 80
5 06/15/2024 21:07:50 -0.09, 61.37 -0.79, 64.49 356.76 80
6 06/17/2024 09:27:03 0.12, 61.31 -0.37, 59.20 241.22 80
7 06/18/2024 09:10:57 0.11, 61.30 0.66, 63.73 277.09 80
8 06/19/2024 21:30:02 -0.14, 61.34 0.48, 58.47 326.79 80
9 06/20/2024 21:13:54 -0.13, 61.34 -0.50, 63.02 191.03 80
